[[{"header":{"parameterUnit":"m.s-1","parameterCategory":1,"la1":30.2991,"la2":30.254,"lo1":-89.0895,"lo2":-89.0444,"dy":0.0017,"dx":0.0017,"nx":28,"ny":28,"refTime":"2024-07-14T21:00:00:Z","depth":0,"parameterNumber":2,"parameterNumberName":"U-component_of_WINDS"},"data":[0,0,0,0,0,0,0,0,0,0,0,0,0,0,0,0,0,0,0,0,0,0,0,0,0,0,0,0,0,0,0,0,0,0,0,0,0,0,0,0,0,0,0,0,0,0,0,0,0,0,0,0,0,0,0,0,0,0,0.324,0.3241,0,0.3369,0.3371,0.3372,0.3403,0.3402,0.3401,0.34,0.3536,0.3541,0.3545,0,0,0,0,0,0,0,0,0,0,0,0,0,0.3021,0.3025,0.324,0.3241,0.3243,0.3369,0.3371,0.3373,0.3403,0.3402,0.34,0.3399,0.3535,0.354,0.3546,0,0,0,0,0,0,0,0,0,0,0,0,0,0.313,0.3026,0.3239,0.3273,0.3277,0.3369,0.3371,0.3373,0.3403,0.3402,0.34,0.3399,0.3533,0.354,0.3546,0.3615,0,0,0.3567,0.357,0,0,0,0,0,0,0,0,0.3124,0.3138,0.3266,0.3271,0.3276,0.3368,0.3344,0.3454,0.3403,0.3355,0.34,0.3398,0.3482,0.3493,0.352,0.3621,0.3627,0.3567,0.3571,0.3574,0.3576,0,0,0,0,0,0,0,0.3116,0.3132,0.3291,0.3268,0.3274,0.3283,0.3297,0.3365,0.3425,0.3359,0.3362,0.3377,0.3484,0.3513,0.3523,0.3629,0.3567,0.3573,0.3577,0.358,0.3793,0.3795,0,0,0,0,0,0,0.3102,0.3126,0.3287,0.3295,0.3195,0.3288,0.3303,0.334,0.3424,0.3435,0.3378,0.3378,0.3503,0.3516,0.3528,0.3614,0.3574,0.3581,0.3584,0.3791,0.3793,0.3795,0,0,0,0,0,0,0.3097,0.3116,0.3282,0.3211,0.3233,0.3293,0.3334,0.3343,0.3373,0.3438,0.3449,0.3396,0.3502,0.3519,0.3593,0.3619,0.3584,0.359,0.379,0.3792,0.3794,0.3786,0,0,0,0,0,0,0.3091,0.3114,0.314,0.3212,0.3237,0.3343,0.3336,0.3347,0.3384,0.3385,0.3458,0.3469,0.3502,0.3583,0.3599,0.3628,0.3595,0.3787,0.3791,0.3794,0.3784,0.3788,0.3791,0,0,0,0,0,0.3083,0.3134,0.3141,0.3161,0.327,0.3344,0.3359,0.3395,0.3386,0.3413,0.3455,0.3467,0.3614,0.359,0.3609,0.364,0.3786,0.379,0.3793,0.3783,0.3787,0.3791,0,0,0,0,0,0,0.3065,0.3143,0.3153,0.3228,0.3279,0.3349,0.3385,0.3399,0.3454,0.3453,0.3497,0.3513,0.3584,0.362,0.3592,0.3711,0.37,0.3707,0.3685,0.369,0.3693,0.3683,0.36,0,0,0,0,0,0.3069,0.3122,0.3189,0.3248,0.3273,0.3324,0.3358,0.3381,0.3437,0.3459,0.3506,0.356,0.3619,0.3656,0.3714,0.3789,0.3806,0.382,0.3824,0.3826,0.3832,0.3876,0.3883,0.3807,0.3807,0.3807,0,0,0.308,0.3129,0.316,0.3246,0.3288,0.3343,0.3343,0.3401,0.3442,0.3468,0.354,0.3577,0.364,0.3715,0.3751,0.3747,0.3857,0.3831,0.3832,0.3838,0.388,0.3887,0.3893,0.381,0.3809,0.3809,0,0,0.3126,0.3169,0.3223,0.3265,0.3329,0.3363,0.3376,0.3444,0.3469,0.3542,0.3563,0.3613,0.3713,0.3757,0.3792,0.3855,0.3869,0.3873,0.3891,0.3933,0.3938,0.3944,0.3967,0.3974,0.3879,0.3879,0.3879,0,0.3131,0.3213,0.325,0.3306,0.3344,0.3369,0.3425,0.3465,0.3544,0.357,0.3564,0.3689,0.3734,0.382,0.3835,0.3863,0.388,0.3865,0.3934,0.394,0.3946,0.3968,0.3977,0.3879,0.3879,0.3879,0.3879,0,0.3216,0.3273,0.331,0.3385,0.3426,0.3483,0.3528,0.3566,0.3585,0.362,0.3694,0.3748,0.3817,0.3839,0.3859,0.3928,0.3923,0.3926,0.3915,0.3953,0.3974,0.3983,0.3879,0.3879,0.3879,0.3879,0,0,0.3255,0.3349,0.3362,0.3397,0.3469,0.3514,0.3572,0.3638,0.3669,0.3724,0.3773,0.3857,0.3859,0.3899,0.3925,0.3961,0.4008,0.3959,0.3961,0.3966,0.4087,0.4085,0.4094,0.4017,0.4019,0.402,0.4082,0,0.3311,0.3413,0.3448,0.3533,0.3586,0.3611,0.3661,0.3712,0.3745,0.3796,0.3834,0.3892,0.3891,0.3915,0.3952,0.3994,0.4033,0.399,0.4065,0.4067,0.4048,0.4106,0.4104,0.416,0.4091,0.4092,0.4093,0,0.3389,0.3443,0.3534,0.36,0.3623,0.3668,0.3731,0.3779,0.3837,0.3859,0.3903,0.3926,0.3988,0.3973,0.406,0.403,0.4063,0.4088,0.4091,0.41,0.4082,0.4116,0.4178,0.4187,0.4107,0.4106,0.4105,0,0.3408,0.3504,0.3571,0.36,0.3678,0.3709,0.3743,0.3799,0.3837,0.3892,0.3917,0.398,0.4014,0.4062,0.4101,0.4087,0.4184,0.4173,0.4205,0.4204,0.4225,0.4223,0.4293,0.4245,0.4245,0.4245,0.4245,0,0.3467,0.3521,0.3581,0.3622,0.3684,0.3723,0.3783,0.3819,0.3869,0.3918,0.3944,0.3989,0.4038,0.409,0.4121,0.4188,0.4204,0.4224,0.4231,0.4222,0.4219,0.4244,0.4241,0.4247,0.4247,0.4246,0.4246,0,0.3499,0.3541,0.3615,0.3683,0.3701,0.3744,0.3802,0.3843,0.3878,0.394,0.3957,0.4011,0.4074,0.4118,0.4199,0.422,0.4292,0.4299,0.4272,0.4276,0.4305,0.4302,0.4394,0.4409,0.4351,0.4351,0.4351,0,0.3533,0.3576,0.3648,0.3682,0.3716,0.3771,0.3809,0.385,0.3888,0.3957,0.399,0.4055,0.4108,0.4208,0.4255,0.4317,0.4326,0.4354,0.4336,0.4325,0.4327,0.4324,0.4329,0.4357,0.4358,0.4358,0.4358,0,0.359,0.3609,0.3662,0.3723,0.3768,0.3818,0.3869,0.3895,0.3945,0.3987,0.4051,0.4093,0.4175,0.4239,0.4305,0.4342,0.4359,0.4364,0.4374,0.4365,0.4347,0.4357,0.428,0.4361,0.4361,0.4361,0.4361,0.4361,0.3625,0.3663,0.372,0.3779,0.3821,0.3868,0.391,0.3949,0.4003,0.4073,0.4094,0.416,0.4218,0.4309,0.4346,0.4399,0.4397,0.4413,0.4417,0.442,0.442,0.4338,0.4411,0.4411,0.4411,0.4411,0.4411,0,0.3682,0.372,0.3774,0.3844,0.389,0.3901,0.3958,0.3996,0.4054,0.4106,0.4157,0.4231,0.4293,0.4345,0.441,0.4442,0.4452,0.4458,0.4456,0.4464,0.4418,0.4402,0.4449,0.4449,0.4449,0.4449,0.4449,0.4449,0.3718,0.3784,0.381,0.3898,0.3935,0.4,0.4031,0.4075,0.4116,0.4197,0.4248,0.4282,0.4334,0.4402,0.446,0.4474,0.4496,0.4501,0.4516,0.4472,0.4467,0.4463,0.4449,0.4505,0.4505,0.4558,0.4559,0.4559]},{"header":{"parameterUnit":"m.s-1","parameterCategory":1,"la1":30.2991,"la2":30.254,"lo1":-89.0895,"lo2":-89.0444,"dy":0.0017,"dx":0.0017,"nx":28,"ny":28,"refTime":"2024-07-14T21:00:00:Z","depth":0,"parameterNumber":3,"parameterNumberName":"V-component_of_WINDS"},"data":[0,0,0,0,0,0,0,0,0,0,0,0,0,0,0,0,0,0,0,0,0,0,0,0,0,0,0,0,0,0,0,0,0,0,0,0,0,0,0,0,0,0,0,0,0,0,0,0,0,0,0,0,0,0,0,0,0,0,4.4086,4.4085,0,4.4044,4.4043,4.4043,4.4035,4.4036,4.4036,4.4036,4.3987,4.3986,4.3984,0,0,0,0,0,0,0,0,0,0,0,0,0,4.4155,4.4154,4.4086,4.4085,4.4085,4.4044,4.4043,4.4043,4.4035,4.4036,4.4036,4.4037,4.3988,4.3986,4.3984,0,0,0,0,0,0,0,0,0,0,0,0,0,4.412,4.4153,4.4086,4.4076,4.4075,4.4044,4.4043,4.4042,4.4035,4.4036,4.4036,4.4037,4.3988,4.3986,4.3984,4.3957,0,0,4.3976,4.3975,0,0,0,0,0,0,0,0,4.4122,4.4117,4.4078,4.4077,4.4075,4.4045,4.405,4.4014,4.4035,4.405,4.4036,4.4037,4.4006,4.4002,4.3993,4.3955,4.3953,4.3976,4.3974,4.3973,4.3973,0,0,0,0,0,0,0,4.4124,4.4119,4.4069,4.4077,4.4076,4.4072,4.4068,4.4043,4.4025,4.4049,4.4048,4.4044,4.4005,4.3995,4.3991,4.3952,4.3976,4.3974,4.3972,4.3971,4.3892,4.3892,0,0,0,0,0,0,4.4129,4.4121,4.407,4.4068,4.4101,4.4071,4.4066,4.4054,4.4025,4.4022,4.4043,4.4043,4.3999,4.3994,4.399,4.3958,4.3973,4.3971,4.397,4.3893,4.3892,4.3892,0,0,0,0,0,0,4.4131,4.4125,4.4072,4.4094,4.4087,4.4069,4.4056,4.4053,4.4043,4.4021,4.4018,4.4037,4.3999,4.3993,4.3966,4.3956,4.397,4.3968,4.3894,4.3893,4.3892,4.3894,0,0,0,0,0,0,4.4133,4.4125,4.4116,4.4094,4.4086,4.405,4.4055,4.4052,4.404,4.404,4.4014,4.401,4.3999,4.397,4.3964,4.3953,4.3966,4.3894,4.3893,4.3892,4.3894,4.3893,4.3892,0,0,0,0,0,4.4135,4.4116,4.4116,4.4109,4.4074,4.405,4.4045,4.4035,4.4039,4.4029,4.4015,4.4011,4.3959,4.3967,4.396,4.3948,4.3895,4.3894,4.3892,4.3895,4.3893,4.3892,0,0,0,0,0,0,4.4135,4.4113,4.4112,4.4086,4.407,4.4049,4.4035,4.4033,4.4013,4.4014,4.4,4.3994,4.3968,4.3955,4.3966,4.3922,4.3927,4.3924,4.3931,4.3929,4.3928,4.3931,4.3964,0,0,0,0,0,4.4132,4.4116,4.4097,4.4076,4.4068,4.4054,4.4042,4.4036,4.4018,4.401,4.3995,4.3976,4.3955,4.3942,4.3921,4.3893,4.3887,4.3881,4.388,4.3879,4.3876,4.3862,4.3859,4.3887,4.3887,4.3887,0,0,4.4125,4.4112,4.4102,4.4075,4.4062,4.4045,4.4048,4.4028,4.4014,4.4007,4.3981,4.3969,4.3947,4.392,4.3907,4.3909,4.3868,4.3877,4.3877,4.3875,4.386,4.3857,4.3855,4.3886,4.3886,4.3886,0,0,4.4104,4.4092,4.4074,4.4062,4.4043,4.4034,4.403,4.4009,4.4002,4.3976,4.3971,4.3954,4.3918,4.3903,4.3891,4.3867,4.3863,4.3861,4.3853,4.3839,4.3837,4.3835,4.3826,4.3824,4.3859,4.3859,4.3859,0,4.4098,4.4072,4.4064,4.4046,4.4035,4.403,4.4011,4.3999,4.3974,4.3965,4.3968,4.3925,4.391,4.388,4.3874,4.3864,4.3859,4.3863,4.3838,4.3836,4.3834,4.3826,4.3823,4.3858,4.3858,4.3859,4.3859,0,4.4065,4.4048,4.4035,4.4014,4.4001,4.3982,4.3971,4.3959,4.3954,4.3944,4.3919,4.3901,4.3878,4.387,4.3864,4.3839,4.3841,4.3841,4.3845,4.3831,4.3824,4.382,4.3858,4.3858,4.3858,4.3858,0,0,4.4041,4.4018,4.4013,4.4004,4.3985,4.397,4.3951,4.3931,4.3921,4.3904,4.3888,4.3859,4.386,4.3846,4.3839,4.3826,4.3809,4.3828,4.3827,4.3825,4.3781,4.3782,4.3778,4.3807,4.3806,4.3806,4.3783,0,4.4017,4.3986,4.398,4.3952,4.3935,4.3932,4.3916,4.3901,4.3892,4.3876,4.3865,4.3845,4.3847,4.3839,4.3827,4.3814,4.38,4.3815,4.379,4.3789,4.3796,4.3774,4.3773,4.3753,4.378,4.378,4.3779,0,4.3986,4.3971,4.3943,4.3927,4.392,4.3905,4.3887,4.3872,4.3856,4.385,4.3836,4.3831,4.381,4.3817,4.3788,4.3799,4.3788,4.378,4.3779,4.3776,4.3783,4.377,4.3746,4.3743,4.3774,4.3775,4.3775,0,4.3971,4.3944,4.3924,4.3916,4.3897,4.3888,4.3879,4.3863,4.3852,4.3836,4.3828,4.3809,4.3798,4.3783,4.3772,4.3777,4.3744,4.3749,4.3738,4.3738,4.373,4.3731,4.3705,4.3724,4.3724,4.3724,4.3724,0,4.3946,4.3928,4.3918,4.3905,4.3886,4.3878,4.3859,4.385,4.3836,4.3821,4.3816,4.3802,4.3789,4.3772,4.3764,4.3742,4.3737,4.3731,4.3728,4.3731,4.3732,4.3723,4.3724,4.3723,4.3724,4.3724,4.3724,0,4.3925,4.3918,4.3896,4.3881,4.3877,4.3863,4.3849,4.3837,4.3829,4.381,4.3805,4.3791,4.3772,4.376,4.3735,4.3729,4.3705,4.3703,4.3711,4.371,4.37,4.3701,4.3667,4.3662,4.3685,4.3684,4.3684,0,4.391,4.3897,4.3881,4.3872,4.3864,4.3849,4.3839,4.3831,4.382,4.3802,4.3791,4.3772,4.3757,4.3726,4.3713,4.3694,4.3691,4.3681,4.3688,4.3692,4.3691,4.3692,4.3691,4.3679,4.3679,4.3679,4.3679,0,4.3882,4.388,4.3866,4.3852,4.384,4.3827,4.3815,4.3807,4.3797,4.3785,4.3767,4.3755,4.3731,4.3712,4.3693,4.3682,4.3678,4.3677,4.3673,4.3675,4.3681,4.3678,4.3708,4.3677,4.3677,4.3678,4.3678,4.3678,4.3864,4.3853,4.3841,4.3826,4.3817,4.3806,4.3794,4.3785,4.3771,4.3752,4.3748,4.3729,4.3714,4.3688,4.3677,4.3661,4.3663,4.3657,4.3656,4.3655,4.3655,4.3684,4.3657,4.3657,4.3657,4.3658,4.3658,0,4.3836,4.3829,4.3816,4.38,4.3789,4.3789,4.3776,4.3766,4.375,4.3737,4.3723,4.3702,4.3685,4.3671,4.3653,4.3643,4.3641,4.3639,4.3639,4.3637,4.3654,4.3659,4.3641,4.3641,4.3641,4.3641,4.3641,4.3641,4.3821,4.3803,4.3799,4.3776,4.3769,4.3752,4.3745,4.3734,4.3724,4.3703,4.3689,4.3681,4.3668,4.365,4.3633,4.363,4.3623,4.3621,4.3617,4.3633,4.3635,4.3637,4.3642,4.362,4.362,4.3601,4.3601,4.36]}]]